CW8014 Weather Reports


time (UTC)temp
C
wind
direction
speed
KPH
gust
KPH
rain 1hr
cm
rain 24hr
cm
rain mn
cm
humidity
%
barometer
mb
20200227115401 4 217 6.4 14.5 0.00 0.25 0.03 91 998.0
20200227114401 4 194 8.0 14.5 0.00 0.25 0.03 91 998.2
20200227111401 3 165 8.0 16.1 0.00 0.25 0.03 92 998.4
20200227110402 3 158 9.7 14.5 0.00 0.25 0.03 92 998.5
20200227105402 3 165 6.4 17.7 0.00 0.28 0.03 93 998.6
20200227104402 3 180 9.7 22.5 0.00 0.28 0.03 93 998.7
20200227101402 3 163 8.0 14.5 0.00 0.28 0.03 94 999.0
20200227100402 3 153 9.7 19.3 0.00 0.28 0.03 95 999.1
20200227095402 3 178 8.0 12.9 0.00 0.28 0.03 95 999.3
20200227094402 2 173 6.4 14.5 0.00 0.28 0.03 95 999.3
20200227093402 2 178 8.0 16.1 0.00 0.28 0.03 96 999.4
20200227090402 2 189 8.0 17.7 0.00 0.28 0.03 97 999.9
20200227085402 2 186 6.4 14.5 0.00 0.28 0.03 97 999.9
20200227083402 1 171 8.0 14.5 0.00 0.28 0.03 97 1000.2
20200227081403 1 184 6.4 14.5 0.00 0.28 0.03 98 1000.5
20200227074403 1 182 6.4 14.5 0.00 0.28 0.03 99 1000.7
20200227073403 1 182 6.4 12.9 0.00 0.28 0.03 99 1000.7
20200227071403 1 181 4.8 14.5 0.00 0.28 0.03 98 1000.7
20200227070403 1 167 6.4 12.9 0.00 0.28 0.03 98 1000.7
20200227064404 0 183 4.8 11.3 0.00 0.28 0.03 98 1000.8
20200227054403 0 216 8.0 16.1 0.00 0.28 0.03 98 1001.4
20200227045404 1 196 9.7 17.7 0.03 0.28 0.03 97 1001.9
20200227044404 1 201 8.0 12.9 0.03 0.28 0.03 97 1002.0
20200227042404 1 223 8.0 12.9 0.00 0.25 0.00 97 1002.0
20200227041404 1 178 8.0 16.1 0.00 0.25 0.00 97 1002.1
20200227035404 1 194 8.0 17.7 0.00 0.25 0.00 97 1002.1
20200227034404 1 192 8.0 19.3 0.00 0.25 0.00 97 1002.1
20200227033404 1 174 8.0 17.7 0.00 0.25 0.00 97 1002.2
20200227032404 1 192 3.2 14.5 0.00 0.25 0.00 97 1002.3
20200227030404 1 250 8.0 16.1 0.00 0.25 0.00 97 1002.4
20200227025404 1 234 8.0 11.3 0.00 0.28 0.00 97 1002.4
20200227023405 2 203 8.0 9.7 0.00 0.28 0.00 97 1002.3
20200227022405 2 202 4.8 11.3 0.00 0.28 0.00 97 1002.3
20200227020405 2 260 6.4 16.1 0.00 0.28 0.00 97 1002.5
20200227013405 2 192 8.0 17.7 0.00 0.28 0.00 97 1002.5
20200227011405 1 220 8.0 14.5 0.00 0.28 0.00 97 1002.4
20200227005405 1 186 6.4 11.3 0.00 0.28 0.00 97 1002.4
20200227003405 1 193 8.0 14.5 0.00 0.28 0.00 97 1002.4
20200226234406 2 219 6.4 12.9 0.00 0.30 0.00 97 1002.3
20200226233406 2 207 4.8 12.9 0.00 0.30 0.00 97 1002.3
20200226232406 2 216 4.8 12.9 0.00 0.30 0.00 97 1002.2
20200226231406 2 240 4.8 14.5 0.00 0.30 0.00 97 1002.2
20200226230406 2 248 4.8 11.3 0.00 0.30 0.00 98 1002.2
20200226224406 2 251 3.2 8.0 0.03 0.33 0.33 98 1002.3
20200226223406 2 240 3.2 8.0 0.03 0.33 0.33 97 1002.4
20200226222406 2 250 3.2 11.3 0.05 0.33 0.33 97 1002.4
20200226215406 2 231 6.4 16.1 0.05 0.33 0.33 97 1002.3
20200226214406 2 285 4.8 12.9 0.05 0.30 0.30 97 1002.2
20200226213406 2 271 6.4 16.1 0.08 0.30 0.30 96 1002.2
20200226212406 2 292 9.7 19.3 0.05 0.25 0.25 97 1002.2
20200226205407 2 278 4.8 12.9 0.05 0.25 0.25 96 1001.9
20200226204407 3 339 8.0 22.5 0.05 0.25 0.25 95 1001.8
20200226201407 2 270 6.4 17.7 0.03 0.23 0.23 97 1001.5
20200226200407 2 230 6.4 16.1 0.03 0.23 0.23 97 1001.5
20200226194407 2 273 9.7 16.1 0.05 0.25 0.23 97 1001.5
20200226193407 2 269 3.2 6.4 0.05 0.23 0.20 97 1001.4
20200226191407 2 265 4.8 11.3 0.05 0.23 0.20 95 1001.2
20200226184407 3 296 11.3 25.7 0.05 0.20 0.15 93 1001.3
20200226183407 3 236 9.7 17.7 0.03 0.18 0.15 93 1000.9
20200226182408 3 240 8.0 17.7 0.03 0.18 0.15 94 1000.7
20200226181408 3 265 8.0 16.1 0.03 0.18 0.15 95 1000.6
20200226175408 3 298 11.3 19.3 0.03 0.18 0.15 93 1000.2
20200226174408 3 312 8.0 14.5 0.00 0.15 0.13 91 1000.0
20200226173408 4 251 11.3 20.9 0.00 0.15 0.13 92 999.9
20200226170408 4 279 4.8 12.9 0.00 0.15 0.13 90 999.5
20200226164408 5 274 6.4 12.9 0.00 0.15 0.13 88 999.2
20200226163409 5 289 9.7 17.7 0.00 0.15 0.13 88 999.0
20200226161408 5 296 12.9 20.9 0.00 0.15 0.13 88 998.8
20200226155408 5 304 11.3 22.5 0.00 0.23 0.13 88 998.5
20200226152409 5 265 9.7 16.1 0.00 0.23 0.13 91 997.9
20200226150409 5 251 11.3 24.1 0.00 0.23 0.13 89 997.6
20200226145409 5 252 6.4 20.9 0.00 0.23 0.13 90 997.5
20200226143409 5 268 11.3 30.6 0.00 0.23 0.13 91 997.4
20200226141409 5 254 11.3 20.9 0.03 0.23 0.13 92 997.1
20200226140409 5 325 12.9 24.1 0.05 0.23 0.13 92 997.0
20200226133409 4 261 9.7 20.9 0.05 0.23 0.13 94 996.6
20200226124410 6 287 11.3 19.3 0.00 0.20 0.08 87 995.8
20200226123410 6 259 12.9 22.5 0.00 0.20 0.08 87 995.8